Content
SEND FEEDBACK

Daily
Averages
Monthly
Summary
United States of America

BOSTON, MASSACHUSETTS


Home > North America > United States > Massachusetts
Elevation: 4 feet     Latitude: 42 22N     Longitude: 071 02W

WEATHER
 
SELECT A DAY
Number of Records: 204,706;   Date Range: 1/1/95 - 9/28/14
 
SHARE

PRINT THIS DATA

[ ← Previous Day ]
WEATHER ALMANAC - APRIL 27, 2013
[ Next Day → ]
[ °C ]   °F
Weather ElementAverageHighLow
Temperature50.8 °F55.9 °F (11:54 am)43 °F (2:54 am)
Dewpoint36.6 °F42.1 °F (9:54 am)30.9 °F (2:54 pm)
Humidity60.5 %89 % (2:54 am)39 % (2:54 pm)
Barometer30.38 in30.43 in (7:54 am)30.31 in (6:54 pm)
Wind Speed7.5 mph13.8 mph (2:54 pm)
Weather ElementAverage
Visibility10 mi
Wind DirectionE (92.6 °)

Weather ElementTotal
Precipitation---
Heating Degree Days15.6 (Base 65)
Averaged from 23 records on April 27, 2013
WEATHER CONDITIONS BREAKOUT
WIND DIRECTION BREAKOUT
WEATHER BY HOUR - APRIL 27, 2013
[ °C ]   °F
Local TimeTemperatureDewpointHumidityBarometerVisibilityWind DirectionWind SpeedGust SpeedPrecipitationEventsConditions
1:54 AM45.0 °F41.0 °F86 %30.42 in10.0 miCalmPartly Cloudy
2:54 AM43.0 °F39.9 °F89 %30.42 in10.0 miNNE (20°)4.6 mphClear
3:54 AM44.1 °F39.0 °F82 %30.42 in10.0 miNorth (10°)3.5 mphPartly Cloudy
4:54 AM44.1 °F39.0 °F82 %30.41 in10.0 miCalmClear
5:54 AM43.0 °F39.0 °F86 %30.41 in10.0 miCalmPartly Cloudy
6:54 AM46.0 °F39.9 °F79 %30.42 in10.0 miCalmPartly Cloudy
7:54 AM48.9 °F39.0 °F69 %30.43 in10.0 miCalmPartly Cloudy
8:54 AM52.0 °F39.0 °F61 %30.43 in10.0 miCalmClear
9:54 AM51.1 °F42.1 °F71 %30.43 in10.0 miESE (120°)8.1 mphPartly Cloudy
10:54 AM52.0 °F37.9 °F59 %30.43 in10.0 miSE (140°)8.1 mphScattered Clouds
11:54 AM55.9 °F34.0 °F44 %30.42 in10.0 miENE (70°)6.9 mphScattered Clouds
12:54 PM54.0 °F33.1 °F45 %30.40 in10.0 miEast (80°)11.5 mphScattered Clouds
1:54 PM55.0 °F33.1 °F43 %30.38 in10.0 miEast (90°)12.7 mphMostly Cloudy
2:54 PM55.9 °F30.9 °F39 %30.36 in10.0 miESE (110°)13.8 mphMostly Cloudy
3:54 PM54.0 °F35.1 °F49 %30.34 in10.0 miESE (120°)12.7 mphScattered Clouds
4:54 PM55.9 °F33.1 °F42 %30.32 in10.0 miESE (110°)13.8 mphScattered Clouds
5:54 PM55.9 °F36.0 °F47 %30.32 in10.0 miESE (110°)13.8 mphPartly Cloudy
6:54 PM55.0 °F37.9 °F53 %30.31 in10.0 miSE (130°)11.5 mphPartly Cloudy
7:54 PM54.0 °F37.9 °F55 %30.31 in10.0 miSSE (160°)9.2 mphPartly Cloudy
8:54 PM54.0 °F32.0 °F43 %30.32 in10.0 miSSW (210°)13.8 mphPartly Cloudy
9:54 PM51.1 °F34.0 °F52 %30.34 in10.0 miSSW (210°)11.5 mphClear
10:54 PM50.0 °F34.0 °F54 %30.34 in10.0 miSW (220°)10.4 mphScattered Clouds
11:54 PM48.9 °F36.0 °F61 %30.35 in10.0 miSW (220°)5.8 mphScattered Clouds
Hourly data recorded from KBOS, located miles away from Boston, Massachusetts







STORIES FROM OUR PARTNERS